Wind_Speed
25 24 24 24 23 22 21 20 18 18 17 16 15 15 17 21 21 21 21 22 24 24 21 21 22 21 21 22 22 21 19 19 20 21 23 22 19 20 20 18 15 10 11 17 18 17 16 15 14 15 16 15 16 18 17 16 16 17 17 19 19 18 19
25 24 24 24 23 23 22 21 19 18 17 17 17 17 16 18 21 20 20 21 23 25 23 22 22 21 21 21 22 21 19 20 20 18 23 24 18 20 22 19 16 14 11 15 20 20 17 16 16 16 18 18 16 16 17 15 15 17 18 19 20 19 20
24 24 24 24 24 24 22 22 21 19 18 18 18 19 17 17 19 19 19 19 21 23 24 23 22 22 21 20 23 22 20 21 21 17 21 24 20 20 22 20 18 16 13 14 19 20 17 16 16 16 19 20 17 15 15 15 14 15 16 18 19 20 21
24 24 23 24 25 25 24 23 23 21 20 19 19 19 19 17 18 18 17 17 19 21 22 23 22 22 21 19 21 23 22 22 22 18 20 22 21 20 21 20 19 18 15 14 16 18 17 15 14 14 19 22 19 17 16 15 13 13 14 16 17 19 20
25 24 23 24 25 26 25 25 25 24 22 21 20 19 20 20 17 17 17 16 17 18 20 21 22 21 21 18 18 20 21 23 22 20 20 20 20 22 22 20 19 19 18 15 15 16 16 14 13 15 19 22 22 20 20 18 15 14 15 16 17 17 18
26 25 24 24 26 25 25 25 26 26 24 23 21 18 20 23 19 18 16 16 16 17 18 19 21 21 21 18 17 18 20 21 22 21 20 19 19 22 23 20 19 18 18 17 16 16 14 13 14 16 19 21 22 19 20 23 22 19 18 19 19 18 18
27 26 24 25 26 25 25 26 27 27 26 23 20 19 22 23 20 18 16 16 16 16 17 18 19 21 21 18 17 17 19 20 21 21 20 18 19 21 22 20 18 17 17 16 16 15 14 13 14 15 17 20 21 19 18 23 24 23 24 25 23 20 18
27 26 25 25 26 26 26 26 27 28 26 23 22 23 25 24 20 18 16 16 16 16 17 18 19 20 21 19 16 16 17 18 20 20 19 18 19 19 20 19 18 17 16 14 14 14 14 13 13 14 17 20 21 20 19 21 20 19 21 24 25 20 16
28 27 25 25 27 27 26 27 27 27 25 24 25 25 26 25 20 16 15 15 16 16 17 18 20 21 21 19 17 16 17 17 18 18 18 18 19 18 19 18 16 16 15 14 13 12 13 13 11 13 16 17 17 16 17 19 18 15 16 21 25 20 15
29 27 26 26 27 27 27 27 27 26 25 25 25 25 26 24 18 14 14 15 16 17 18 19 20 21 21 19 18 17 18 18 19 17 15 15 17 17 18 17 16 16 14 13 12 11 12 12 10 11 14 14 15 15 16 17 17 16 16 19 21 19 16
29 27 26 27 27 27 28 28 27 26 25 25 25 25 26 23 16 13 14 16 17 19 20 20 20 20 20 20 19 18 18 19 20 17 13 13 14 15 16 16 17 16 14 13 12 12 13 11 9 12 14 15 16 17 17 18 16 15 16 15 13 13 16
29 28 27 27 27 28 29 29 27 25 25 26 26 25 25 22 17 14 15 16 19 22 22 20 19 20 20 20 20 18 18 20 20 16 14 14 14 15 16 16 16 15 15 14 13 13 14 13 11 13 16 17 17 18 20 21 17 14 13 12 11 10 15
29 28 28 28 28 30 30 29 28 26 25 27 26 24 25 23 17 14 15 18 21 24 23 21 21 21 20 20 20 19 20 21 20 17 16 16 16 18 19 17 15 14 13 13 13 13 14 12 11 15 17 17 17 20 23 21 15 14 14 13 13 13 19
30 29 29 29 29 30 30 29 28 26 25 25 25 23 24 22 18 17 18 20 22 24 24 23 22 21 21 21 20 21 21 21 19 19 19 18 17 19 18 15 13 11 10 11 12 13 13 10 11 15 17 18 19 20 21 18 16 17 18 17 16 17 22
29 29 30 30 30 30 30 28 27 26 25 25 24 23 22 22 22 22 22 21 23 24 24 24 22 20 19 20 21 22 21 20 20 21 20 18 17 18 16 12 11 9 9 11 13 12 11 11 13 15 17 18 20 20 19 18 19 20 19 17 16 17 18
29 29 30 30 29 30 30 28 26 25 25 25 24 23 23 23 24 24 23 23 23 24 24 24 22 18 18 20 21 22 20 18 20 21 20 19 19 17 12 10 10 10 11 13 14 13 13 15 16 17 18 19 20 20 20 19 19 18 16 15 15 14 14
30 29 29 29 29 29 29 28 25 24 25 25 24 24 23 24 24 23 22 22 22 22 24 24 21 18 18 21 22 20 19 19 20 21 21 20 17 13 11 12 13 13 13 15 16 16 18 19 20 20 21 20 19 18 18 15 13 13 13 12 10 8 11
31 30 30 29 28 28 28 28 25 23 24 24 24 24 24 25 25 22 21 21 23 24 24 24 22 19 19 21 20 20 20 19 19 20 20 16 12 11 13 15 15 16 17 19 20 20 21 22 23 23 22 19 16 13 12 10 9 11 12 11 8 6 11
30 31 31 30 29 28 28 28 26 24 24 24 24 24 24 24 23 22 22 24 26 26 25 23 22 20 20 20 19 19 20 19 18 19 16 12 11 14 16 17 17 17 18 19 21 22 24 24 23 21 17 15 12 9 8 9 10 11 12 12 10 9 9
30 32 32 31 30 30 29 28 28 26 25 24 24 24 23 23 23 24 25 27 27 26 25 24 23 21 22 22 19 18 20 19 18 17 13 10 13 17 17 17 17 17 18 20 22 23 23 21 19 15 12 12 11 8 8 10 10 11 12 12 11 11 8
31 32 33 32 31 31 30 28 28 27 26 24 24 23 22 23 24 25 26 26 24 24 25 26 25 24 25 26 21 18 20 21 19 17 15 14 15 16 17 18 19 19 20 21 21 21 19 17 15 13 12 12 10 8 9 11 11 11 12 11 11 11 9
32 32 33 33 32 31 30 29 27 26 25 24 23 22 21 23 23 23 23 24 24 25 26 27 27 27 29 28 23 20 21 21 20 19 19 17 17 18 19 20 19 20 20 20 19 18 17 16 16 15 14 13 11 11 11 12 12 12 12 11 10 9 9
32 31 32 33 33 32 31 29 28 27 26 26 25 23 22 22 21 20 20 22 23 23 24 27 29 30 30 27 24 23 23 22 21 20 21 21 20 20 20 19 19 19 19 19 19 18 18 18 17 17 17 16 15 14 14 13 13 13 13 12 11 10 10
31 30 31 32 34 34 32 30 30 29 29 28 27 26 24 21 20 20 19 20 22 21 23 26 29 30 29 27 25 25 23 21 21 22 23 23 22 20 18 18 19 19 18 19 20 19 19 19 19 18 17 16 15 15 15 14 13 13 13 12 12 12 13
31 30 30 30 32 34 34 32 32 32 31 30 28 27 25 23 23 22 21 21 22 22 23 25 27 29 30 29 27 24 22 23 24 24 24 24 23 20 18 18 19 18 18 19 20 19 20 21 20 18 16 15 15 14 13 13 14 14 14 14 14 15 15
30 30 29 30 31 33 34 33 33 33 33 31 29 28 27 27 27 26 23 22 22 23 24 25 27 28 29 28 26 24 24 26 27 28 27 27 24 21 18 17 17 17 17 18 18 19 20 21 20 19 17 16 16 14 13 13 15 16 17 16 16 17 17
30 29 29 30 31 32 33 34 34 34 33 31 30 30 30 29 28 27 25 24 25 25 26 26 26 26 26 27 27 27 27 29 30 30 29 28 25 21 18 17 17 17 17 18 18 19 20 21 20 19 18 17 16 15 14 15 15 16 17 17 16 17 19
31 31 31 31 31 32 32 33 33 33 33 32 31 31 30 29 29 28 27 27 27 27 26 25 25 25 26 26 28 29 30 31 31 31 30 28 26 23 20 18 18 17 18 18 18 19 20 21 21 20 19 18 16 16 16 16 15 16 17 17 15 16 18
32 33 32 31 32 31 31 33 35 35 34 32 31 30 30 29 29 28 28 27 26 25 26 26 25 25 26 26 27 28 30 30 30 30 30 29 26 24 22 19 18 18 19 18 18 19 20 21 21 21 20 18 18 18 17 16 16 17 17 16 15 15 17
31 33 32 32 34 33 33 36 39 39 36 33 31 30 29 29 28 27 27 27 25 25 26 26 25 25 26 25 26 27 27 28 28 28 29 29 28 26 24 21 20 19 19 18 19 19 20 20 21 22 21 19 19 19 18 18 18 17 16 15 15 16 16
30 32 31 32 35 36 36 38 40 39 36 34 31 30 29 29 28 28 27 26 24 25 27 26 25 26 26 25 25 26 27 27 26 26 27 28 29 28 26 24 22 21 19 19 19 19 19 20 20 21 21 20 20 21 21 21 20 17 16 15 14 14 16
33 33 32 31 33 34 36 37 37 37 36 33 31 30 30 30 29 28 27 25 24 26 28 27 26 27 27 26 26 27 27 27 26 27 27 26 27 28 28 26 24 21 20 20 20 20 20 20 20 20 21 21 21 23 24 24 22 18 15 14 13 13 15
34 33 32 32 32 32 34 36 35 35 35 33 32 31 31 30 29 29 27 25 25 27 29 28 27 28 29 28 28 29 28 27 27 27 27 26 27 28 29 27 24 21 21 22 22 21 21 20 20 20 20 21 22 22 23 24 23 20 17 15 14 15 16
34 33 33 34 34 34 34 36 36 36 35 34 32 31 30 29 30 29 28 26 27 29 30 29 28 29 30 29 29 29 29 28 28 28 27 27 27 28 29 28 24 22 23 24 23 22 21 21 21 21 21 22 22 22 22 23 22 20 19 18 18 18 19
40 38 35 36 37 38 38 37 36 36 34 32 31 30 28 28 29 30 29 28 28 30 31 31 31 31 32 31 31 30 30 30 30 29 28 28 28 28 28 27 25 24 24 24 23 23 22 21 21 22 22 22 22 22 22 22 22 21 20 20 19 19 19
44 43 41 40 40 38 37 35 33 32 32 31 31 29 26 26 29 30 29 29 30 30 31 32 33 33 33 33 32 32 32 31 31 31 30 29 28 28 27 27 27 26 26 25 24 24 23 22 22 23 23 22 22 22 23 23 23 22 21 20 19 19 19
Wind_Direction
343 342 341 342 342 342 342 340 342 348 349 348 342 333 328 331 338 346 350 351 353 357 354 345 346 348 348 352 354 359 1 354 354 357 358 3 356 352 3 354 334 323 306 316 333 343 348 357 3 11 17 16 14 17 19 23 32 36 35 30 24 23 28
338 338 337 338 339 339 340 338 337 339 342 346 345 338 328 324 329 336 343 346 350 354 354 348 345 345 346 347 348 353 357 355 355 350 350 359 356 345 356 358 337 327 318 317 326 335 343 352 359 6 9 11 13 12 14 20 27 33 35 28 21 21 25
335 335 335 335 336 336 336 337 335 333 332 334 339 341 334 321 319 326 334 340 345 349 351 350 345 343 344 343 343 348 351 351 355 352 345 352 356 348 350 353 344 333 324 316 320 328 337 348 357 1 360 2 7 6 10 17 21 28 31 23 16 15 19
333 332 332 333 334 334 333 334 334 333 329 325 326 333 336 326 312 314 325 332 338 344 347 348 344 342 342 341 340 343 345 345 347 349 346 346 352 352 347 346 348 342 330 321 318 322 331 343 355 357 353 356 358 359 5 13 16 20 20 18 16 11 10
333 331 330 331 332 332 332 331 331 332 330 326 322 321 331 333 315 304 316 325 330 338 343 343 342 339 339 339 337 337 339 340 339 341 344 342 343 347 347 345 346 344 337 330 320 317 325 341 352 352 353 358 359 355 356 1 8 15 12 10 14 10 4
332 330 328 328 328 329 330 328 328 329 329 330 326 320 329 334 316 298 309 321 324 331 337 339 339 337 335 335 333 333 334 334 335 336 339 339 338 340 345 344 341 342 340 334 327 322 328 344 353 352 353 358 1 358 356 357 357 0 4 4 8 9 2
330 328 326 325 325 327 328 326 325 327 328 330 331 331 334 330 311 295 305 318 321 326 331 334 335 333 332 331 330 329 329 329 332 333 333 335 335 337 342 342 339 340 339 336 333 331 335 345 351 354 353 354 358 359 359 1 356 350 353 357 0 4 0
330 327 324 323 324 325 326 324 324 326 327 331 335 335 332 322 305 296 305 318 324 324 325 328 330 328 327 326 325 323 323 325 329 330 328 330 333 334 337 339 338 338 337 337 337 334 338 344 346 353 354 353 1 1 353 357 355 343 344 348 349 358 4
329 328 325 323 323 324 324 324 324 325 327 329 329 327 323 315 303 297 307 322 328 326 323 323 324 323 323 323 320 318 320 323 326 327 324 326 330 330 331 335 337 336 334 335 337 336 339 343 344 354 356 353 359 357 343 344 347 340 340 343 344 353 3
328 328 325 323 323 323 323 323 322 322 323 322 320 319 319 312 300 296 312 327 332 328 323 319 318 318 318 319 320 320 320 321 324 326 320 322 328 326 327 332 332 330 330 331 333 336 341 342 340 350 355 349 344 344 339 339 342 338 339 345 347 349 350
327 327 324 322 321 320 321 322 321 320 320 318 317 317 317 311 300 302 316 328 333 330 324 318 316 316 315 317 321 322 318 318 323 325 322 324 328 322 323 327 323 321 323 324 327 333 338 337 332 340 350 345 337 339 338 336 335 332 336 346 350 341 336
326 325 323 322 320 318 320 320 320 319 318 317 317 317 315 310 304 309 321 330 332 328 324 320 316 315 314 315 319 319 316 317 321 323 325 329 328 321 319 318 312 310 313 317 323 330 331 329 329 338 345 343 337 335 332 329 328 330 333 339 341 328 319
323 323 322 322 319 318 319 319 320 321 318 317 317 317 316 312 307 315 327 332 330 326 323 322 319 315 313 314 316 316 316 318 320 321 325 328 324 320 318 313 304 300 302 307 311 312 314 322 334 338 338 340 337 330 328 326 328 333 332 327 325 315 310
320 320 320 321 319 319 318 318 320 322 318 316 318 318 317 315 315 320 324 326 327 324 322 323 320 313 312 313 314 314 315 317 320 322 322 320 318 318 318 313 303 293 294 307 311 305 304 317 338 337 333 336 336 329 327 329 329 329 325 318 313 308 309
317 317 318 319 320 320 319 318 321 322 318 317 317 317 317 318 316 315 316 320 322 320 320 323 320 314 313 313 310 310 313 317 318 317 315 314 317 318 317 314 307 297 300 317 323 319 316 323 332 332 328 330 332 327 324 322 317 313 313 313 312 312 314
314 315 315 317 319 320 319 319 321 322 319 317 317 317 317 316 313 311 312 317 318 316 317 321 322 318 314 312 308 307 312 315 312 311 314 319 320 316 309 303 300 295 296 309 317 321 322 321 322 324 325 326 326 325 322 315 308 307 313 321 325 327 329
312 313 313 314 316 317 318 318 321 323 321 318 317 318 317 316 314 312 311 314 315 316 317 319 320 319 316 314 312 311 312 310 308 311 317 319 315 307 299 298 298 296 293 296 301 303 303 305 308 312 317 319 321 324 326 325 322 325 332 336 339 341 334
311 311 311 311 313 315 315 316 319 322 321 318 316 317 318 317 314 310 310 316 318 317 316 316 317 321 322 320 317 315 313 309 309 313 312 308 306 306 305 307 307 304 300 297 295 294 293 295 300 305 308 312 317 321 326 336 345 345 346 348 349 341 330
309 309 310 311 311 313 313 313 317 320 320 317 315 316 318 316 313 311 314 319 319 314 312 312 312 318 328 329 321 314 313 312 311 309 298 295 315 320 316 317 314 309 309 309 305 303 303 303 305 307 308 310 314 314 318 332 342 343 346 352 348 341 338
309 308 309 310 310 311 311 311 314 318 319 315 312 314 315 313 312 314 316 317 313 308 306 307 308 311 322 329 323 313 313 312 309 304 298 310 329 324 319 321 315 306 308 310 309 309 311 311 311 311 312 315 315 311 314 324 334 340 344 347 342 337 338
309 307 307 308 308 308 308 310 311 314 316 313 310 311 311 309 309 311 311 309 306 302 301 303 305 306 314 322 321 313 311 308 306 308 313 319 322 317 314 313 306 301 302 304 306 310 312 313 315 315 318 319 315 313 316 320 327 335 338 339 337 336 332
307 306 306 307 306 305 306 309 310 311 312 312 310 308 308 308 308 307 306 304 302 299 297 299 301 304 311 317 317 310 306 304 306 309 309 309 310 309 307 305 301 300 301 303 306 309 309 311 316 318 318 316 311 311 314 315 319 324 326 324 323 324 325
306 306 304 304 305 305 306 308 309 310 310 311 311 310 308 307 306 303 302 301 300 297 295 296 299 303 309 313 313 307 303 301 302 301 299 301 306 306 303 301 299 299 300 302 305 306 306 309 313 315 315 314 310 307 308 310 313 316 315 310 304 304 308
304 303 302 301 302 304 305 308 309 309 309 310 311 312 311 309 307 304 299 294 293 294 295 295 297 301 304 306 305 303 301 297 295 294 295 300 305 304 298 294 294 295 297 299 299 301 303 307 310 313 316 316 313 308 305 307 309 309 308 304 299 297 298
300 300 298 297 298 300 304 307 308 308 309 310 311 311 312 311 310 309 304 292 285 286 289 291 293 295 298 300 301 300 299 297 296 296 298 300 303 300 292 285 286 291 294 294 294 296 300 304 308 312 314 314 314 311 307 307 307 306 307 308 305 300 294
296 296 295 294 294 297 301 304 305 306 307 310 310 310 311 311 310 310 308 299 290 288 289 290 292 294 297 299 299 297 296 296 297 297 297 298 300 298 289 283 284 288 289 288 289 291 295 300 305 307 308 309 309 308 307 309 311 312 312 315 315 310 302
293 292 291 291 292 295 298 300 302 303 305 308 310 310 311 311 309 308 306 302 299 298 298 297 296 296 296 295 293 291 292 293 295 297 298 299 301 299 292 284 283 284 283 283 285 289 293 297 300 301 302 304 304 302 303 307 311 314 315 317 319 316 311
290 289 288 288 290 293 295 296 296 298 301 305 308 308 308 308 306 304 302 300 300 301 301 299 296 294 292 291 289 289 291 292 294 296 298 299 300 301 297 287 280 280 279 277 282 289 292 294 296 296 298 301 300 298 300 304 307 312 315 316 316 316 316
286 286 287 287 287 288 289 290 292 295 299 301 300 300 299 298 297 296 295 295 296 297 295 293 290 288 287 287 286 287 288 289 291 294 296 298 299 300 298 291 282 279 278 277 282 288 292 294 296 296 297 299 297 296 298 301 304 310 313 311 309 310 313
282 282 284 283 282 283 282 283 288 293 295 294 293 293 292 291 291 290 290 290 290 289 287 285 283 282 282 282 282 282 282 284 287 289 291 294 296 297 297 292 284 279 278 279 282 286 290 292 294 295 296 297 296 296 299 300 303 309 308 302 302 306 308
285 283 281 278 279 281 282 283 287 290 291 291 291 291 291 290 290 289 288 289 289 286 282 279 278 278 278 278 277 277 277 280 281 282 284 288 291 293 293 290 283 279 278 279 281 284 286 287 288 290 292 294 295 297 299 301 304 306 301 296 297 300 303
293 290 287 282 279 279 281 284 287 289 290 290 289 289 289 289 289 288 287 287 285 280 276 274 274 274 275 275 274 274 275 276 277 278 278 280 282 284 286 286 284 281 280 279 279 281 283 282 281 282 284 287 291 295 297 300 302 303 300 297 295 294 298
296 295 293 290 287 283 283 285 287 288 288 288 287 287 287 287 286 285 284 283 279 275 272 272 271 270 271 271 271 273 275 276 275 275 276 275 275 277 280 284 285 283 278 276 276 279 280 279 277 276 277 280 285 289 292 295 297 299 299 298 296 296 299
298 296 295 294 293 291 289 289 290 290 290 289 288 287 287 287 285 283 280 275 271 268 268 269 268 268 269 269 270 272 273 274 275 274 274 273 273 274 277 282 283 280 274 272 274 276 276 275 274 272 272 275 280 283 285 286 288 290 292 293 294 297 300
298 297 295 294 294 293 292 292 292 292 292 290 288 287 287 285 282 279 275 270 265 263 263 265 265 266 268 268 269 270 271 272 273 273 272 272 272 273 276 278 278 275 273 273 274 272 271 271 271 268 268 270 275 277 277 277 278 281 284 285 288 291 295
295 297 297 295 293 293 293 293 293 292 291 290 287 285 281 276 273 272 271 269 266 263 262 263 263 264 266 268 268 270 270 271 272 272 272 271 271 271 272 273 273 272 273 273 271 269 269 269 267 265 265 265 267 269 268 269 272 275 277 279 281 284 288
Height
896 894 892 889 887 885 883 881 879 877 875 872 871 869 867 865 863 861 858 856 854 852 850 848 845 843 841 838 836 833 831 829 826 824 822 819 817 814 812 811 810 806 799 793 792 791 789 786 784 781 779 777 775 774 773 770 768 766 765 764 763 761 760
895 893 891 888 886 885 882 880 878 876 874 872 870 868 866 864 862 860 858 855 853 851 849 847 845 842 840 838 836 833 831 829 827 825 822 819 818 815 813 811 810 807 802 795 792 791 789 787 785 783 780 778 776 775 773 772 769 767 766 765 764 763 761
895 892 890 888 885 883 881 879 877 875 873 871 869 867 865 863 861 859 857 854 852 850 848 846 844 842 840 837 835 833 831 829 827 825 823 820 818 816 813 811 810 807 804 798 794 792 791 788 785 784 782 780 778 776 774 772 770 768 767 766 765 763 762
894 891 889 886 884 882 880 877 875 873 871 869 867 865 863 861 860 858 856 854 852 850 848 846 843 841 839 837 835 832 830 828 826 824 823 820 818 816 813 811 809 808 805 800 796 794 792 790 786 784 783 781 779 777 775 773 771 769 768 767 765 764 763
892 890 887 885 883 881 878 876 874 872 870 868 866 864 862 860 858 856 855 853 851 849 847 845 843 841 839 836 834 832 830 828 826 824 822 820 818 816 813 811 809 807 805 802 798 795 793 791 787 784 783 781 779 777 775 773 771 770 768 767 765 764 763
891 888 886 884 882 879 877 875 873 870 868 866 864 862 860 858 856 854 853 851 850 848 847 845 843 841 838 836 834 832 830 828 825 823 822 820 817 815 813 811 809 806 805 802 799 796 793 791 788 785 783 782 781 779 777 774 771 769 768 766 765 763 762
889 887 885 882 880 878 876 873 871 869 866 864 862 860 858 856 854 852 851 850 848 847 845 844 842 840 838 836 834 832 830 827 825 823 821 819 817 815 813 810 808 806 804 802 800 797 794 792 789 787 784 783 782 781 780 776 772 769 767 766 765 764 763
887 885 883 881 878 876 874 871 869 867 864 862 860 858 856 854 853 851 849 848 846 845 844 842 841 839 837 835 833 831 829 827 825 822 820 818 817 815 812 810 808 806 804 802 800 798 796 793 791 788 786 784 782 781 781 779 776 773 769 767 766 765 764
886 883 881 878 876 874 872 869 867 865 862 860 859 857 855 853 851 848 847 846 844 843 842 840 839 837 835 833 832 830 828 826 824 822 820 818 816 814 812 810 808 806 804 802 800 798 796 794 792 790 787 785 784 784 783 781 779 776 772 769 767 766 766
884 881 879 876 874 872 869 867 865 863 861 860 858 856 853 851 848 846 845 843 842 841 840 838 837 835 833 832 830 828 826 825 823 821 819 817 815 814 812 810 808 806 805 803 801 799 797 795 793 792 790 788 787 787 785 782 779 776 773 770 767 766 766
882 879 877 874 872 869 867 865 863 861 859 858 856 854 852 848 846 844 843 841 840 839 837 836 834 832 831 829 828 826 824 823 821 819 817 816 814 813 811 810 808 806 804 802 801 799 798 796 795 793 792 790 788 787 785 783 780 777 775 772 770 768 766
879 877 875 872 870 867 865 863 860 859 858 856 854 852 850 846 844 842 841 840 838 837 835 833 832 830 829 827 826 824 822 820 819 817 816 814 813 812 810 809 807 805 804 802 800 799 798 796 795 793 792 790 788 787 785 783 781 778 776 774 773 772 769
877 875 873 870 868 865 862 860 858 856 855 854 852 850 848 844 842 840 839 837 837 835 833 832 830 828 827 825 824 822 820 819 817 815 814 812 811 810 808 807 806 804 803 802 800 798 797 796 795 793 792 791 789 787 785 782 780 779 777 775 774 773 770
875 873 871 868 866 863 860 858 855 854 853 852 850 848 846 843 840 838 837 836 834 833 831 830 828 826 825 823 822 820 818 817 815 813 812 811 809 808 806 805 803 802 802 801 799 798 797 796 795 793 792 790 789 787 785 782 780 778 776 775 773 772 770
873 871 868 866 864 861 858 856 854 852 851 849 848 846 844 841 838 836 835 834 832 831 829 828 826 824 823 821 820 818 817 815 814 812 810 809 807 806 805 803 802 801 800 800 799 797 796 795 794 793 791 790 789 787 785 782 780 778 776 773 771 770 769
871 869 866 863 862 859 855 853 852 850 849 847 845 844 842 839 837 835 833 831 830 829 827 826 824 822 821 819 817 816 815 814 812 811 809 807 805 804 803 802 801 800 800 799 797 796 795 794 793 791 790 789 788 786 783 781 779 777 775 772 770 769 768
868 866 863 861 859 856 853 851 849 848 846 845 843 842 840 837 835 833 831 829 828 827 825 824 822 821 819 817 815 813 812 812 810 809 807 805 803 803 801 800 800 799 798 797 795 794 793 791 790 789 788 787 786 784 781 779 778 776 774 772 770 769 768
865 862 860 858 856 854 851 848 847 846 844 842 841 840 837 835 833 831 829 827 825 824 823 821 820 819 817 815 813 811 810 810 809 807 805 803 802 801 799 799 798 796 795 794 793 792 791 789 788 787 786 785 784 782 780 778 777 775 774 772 771 770 769
862 859 857 855 853 852 849 846 845 843 841 840 839 837 836 833 831 828 826 825 823 821 820 819 818 817 816 814 812 810 808 808 807 805 803 801 800 799 798 797 796 794 793 791 790 789 788 787 786 784 783 782 782 781 779 778 777 775 774 773 772 771 770
860 856 854 852 850 849 847 845 842 841 839 838 836 835 834 831 829 826 824 822 821 818 817 816 815 814 813 812 810 808 806 805 805 804 801 799 798 797 796 795 794 793 791 790 788 787 785 784 783 782 781 781 780 779 778 777 776 775 773 773 772 771 771
857 854 851 849 847 845 843 842 840 838 837 836 834 832 831 829 827 825 822 820 819 816 814 813 812 811 811 810 808 806 804 803 803 802 799 797 797 796 795 794 792 790 789 788 786 785 783 782 781 780 780 779 778 777 777 776 775 774 773 772 771 770 770
854 851 847 845 843 841 840 839 838 836 835 833 831 830 828 827 824 823 821 819 817 815 812 811 810 809 808 807 806 805 803 802 800 799 796 795 795 794 793 791 790 788 787 785 784 783 782 781 780 779 778 777 776 776 775 774 774 773 772 772 771 770 770
851 848 844 841 839 837 836 835 834 833 832 830 828 827 825 824 822 821 820 817 815 813 811 809 807 806 805 805 803 802 801 799 798 796 794 793 793 792 790 789 787 786 785 783 782 781 780 779 778 777 776 775 774 774 773 773 772 772 771 771 770 770 769
848 845 841 838 835 833 832 832 830 829 828 827 825 824 822 821 819 818 817 815 812 811 809 807 805 803 802 802 800 799 798 796 795 793 792 791 790 789 788 787 785 784 783 781 780 779 778 777 776 775 775 774 773 772 771 771 771 770 770 769 768 768 767
844 842 839 836 832 829 828 827 826 824 823 823 822 820 819 818 816 815 814 812 810 808 807 805 803 801 799 798 797 795 794 792 791 790 789 788 787 786 785 784 783 782 780 779 777 776 775 775 774 774 773 772 771 770 770 769 769 768 768 767 766 766 765
841 839 836 833 830 827 824 823 822 820 819 818 817 816 815 814 813 811 810 809 807 806 804 803 801 799 797 795 793 792 791 789 787 786 785 784 784 783 782 781 780 779 778 777 776 774 773 772 772 772 771 770 770 769 768 768 767 766 765 765 764 763 762
839 836 833 830 827 824 822 820 818 816 815 814 813 812 811 809 808 807 806 805 804 802 801 799 798 796 794 792 790 789 788 786 784 783 781 780 780 779 779 778 778 777 776 775 774 773 771 771 770 769 769 768 768 767 767 767 765 764 763 763 762 761 759
835 833 830 827 825 822 819 816 814 813 812 811 810 808 807 805 804 803 802 800 799 798 797 795 794 792 790 789 787 786 784 783 781 780 778 777 776 776 775 775 775 774 773 772 772 771 769 768 768 767 767 766 766 765 765 765 764 763 762 761 761 759 758
832 829 827 825 823 820 817 813 810 810 810 809 808 807 805 803 802 800 799 798 797 796 793 791 790 788 787 786 785 783 781 779 778 777 775 773 773 772 771 771 771 770 770 770 770 769 767 766 765 765 764 764 764 763 763 763 763 762 761 760 760 759 758
828 826 825 823 820 818 816 811 807 807 807 806 805 804 802 800 799 798 796 795 795 793 790 788 786 784 783 782 781 779 778 776 775 774 772 770 770 769 768 768 767 767 767 767 767 766 765 764 763 762 761 761 761 760 761 761 760 760 759 759 758 757 756
825 822 822 820 816 813 811 808 805 804 803 802 801 800 798 797 795 794 793 792 792 789 786 784 782 780 779 778 777 775 774 773 772 771 769 768 767 765 765 764 763 763 764 764 764 764 763 762 761 760 759 759 758 757 757 757 758 758 757 757 756 755 754
819 817 816 814 812 809 806 804 802 801 799 798 797 795 794 793 791 790 789 789 788 784 781 779 778 776 774 774 772 771 770 769 768 767 766 765 764 762 761 761 760 761 761 761 761 761 760 760 759 758 757 757 756 755 754 754 754 755 755 754 754 753 753
813 811 809 808 806 804 802 799 797 796 794 793 791 790 789 787 786 785 785 784 783 779 776 775 774 771 770 769 768 766 765 765 764 763 762 761 760 758 757 757 758 758 758 758 758 757 757 756 756 756 755 755 754 754 753 751 751 751 752 752 752 751 751
806 805 803 801 799 798 796 793 792 790 788 787 786 784 783 782 780 779 778 778 777 774 771 770 769 766 765 764 763 762 761 760 759 758 758 757 756 755 754 754 754 754 754 754 754 754 753 753 753 753 753 752 752 752 751 750 749 749 749 749 749 748 748
797 798 797 796 793 791 790 788 786 784 783 782 780 779 779 778 775 772 771 770 770 768 766 765 763 761 760 759 758 757 756 755 754 753 753 752 751 751 750 750 750 750 750 751 751 750 750 750 750 750 750 750 749 749 749 748 748 748 747 747 747 747 746
792 790 790 788 787 785 784 782 781 779 777 776 775 775 775 773 769 766 764 763 762 761 759 758 757 755 754 754 753 752 751 750 749 748 748 747 747 746 746 746 746 746 746 746 746 746 747 747 747 747 747 747 747 746 746 745 745 745 745 745 745 745 745